Powrót do katalogu

STARLINK-6191

AktywnyŁącznośćVLEO
NORAD 56378·PAYLOAD·🇺🇸 United States

Wystrzelony May 4, 2023 z Cape Canaveral Space Force Station

Loading…

Następne Przeloty (najbliższe 24 godziny)

TLE

ŚwieżeSource: CelesTrak SupGP

Epoka: Sep 15, 2026, 02:47 UTC

1 56378C 23061E   26258.11645833  .00000681  00000+0  24652-4 0  2580
2 56378  43.0029 207.8854 0001376 272.8468  55.5750 15.27577394    15

Śledź STARLINK-6191 w czasie rzeczywistym z AllMySat

Download on the App Store